,VESSEL WALL ABOVE BOTTOM HEAD(TE-2-3-69H3),RPV Temperature(TE-2-3-69R),Volume of water injection to RPV(FDW),Volume of water injection to RPV(CS),Volume of water injection to RPV(FDW+CS),Temperature in the water injection to the reactor�iFDW�j,Temperature in the water injection to the reactor�iCS�j,Radioactive concentration in PCV (Xe 135) System A[indicated value],Radioactive concentration in PCV (Xe 135) System A[detection limit],Radioactive concentration in PCV (Xe 135) System B[indicated value],Radioactive concentration in PCV (Xe 135) System B[detection limit],note
Unit,��,��,m3/h,m3/h,m3/h,��,��,Bq/cm3,Bq/cm3,Bq/cm3,Bq/cm3,
Instrument condition at the newest time,,,,,,,,,,,,
2024/1/1 1:00,27.6,29.2,1.5 ,0.0 ,1.5 ,13.3,-,ND,1.20E-01,ND,1.20E-01,
2024/1/1 2:00,27.6,29.2,1.5 ,0.0 ,1.5 ,13.3,-,ND,1.20E-01,ND,1.20E-01,
2024/1/1 3:00,27.6,29.3,1.5 ,0.0 ,1.5 ,13.3,-,ND,1.20E-01,ND,1.20E-01,
2024/1/1 4:00,27.6,29.3,1.5 ,0.0 ,1.5 ,13.3,-,ND,1.20E-01,ND,1.20E-01,
2024/1/1 5:00,27.6,29.3,1.5 ,0.0 ,1.5 ,13.3,-,ND,1.20E-01,ND,1.20E-01,
2024/1/1 6:00,27.6,29.3,1.5 ,0.0 ,1.5 ,13.3,-,ND,1.20E-01,ND,1.20E-01,
2024/1/1 7:00,27.6,29.3,1.5 ,0.0 ,1.5 ,13.3,-,ND,1.20E-01,ND,1.20E-01,
2024/1/1 8:00,27.5,29.2,1.5 ,0.0 ,1.5 ,13.3,-,ND,1.20E-01,ND,1.20E-01,
2024/1/1 9:00,27.5,29.3,1.5 ,0.0 ,1.5 ,13.2,-,ND,1.20E-01,ND,1.20E-01,
2024/1/1 10:00,27.5,29.2,1.5 ,0.0 ,1.5 ,13.3,-,ND,1.20E-01,ND,1.20E-01,
2024/1/1 11:00,27.5,29.3,1.5 ,0.0 ,1.5 ,13.3,-,ND,1.20E-01,ND,1.20E-01,
2024/1/1 12:00,27.5,29.3,1.5 ,0.0 ,1.5 ,13.3,-,ND,1.20E-01,ND,1.20E-01,
2024/1/1 13:00,27.5,29.3,1.5 ,0.0 ,1.5 ,13.2,-,ND,1.20E-01,ND,1.20E-01,
2024/1/1 14:00,27.5,29.3,1.5 ,0.0 ,1.5 ,13.3,-,ND,1.20E-01,ND,1.20E-01,
2024/1/1 15:00,27.5,29.3,1.5 ,0.0 ,1.5 ,13.2,-,ND,1.20E-01,ND,1.20E-01,
2024/1/1 16:00,27.5,29.3,1.5 ,0.0 ,1.5 ,13.3,-,ND,1.20E-01,ND,1.20E-01,
2024/1/1 17:00,27.5,29.3,1.5 ,0.0 ,1.5 ,13.3,-,ND,1.20E-01,ND,1.20E-01,
2024/1/1 18:00,27.5,29.4,1.5 ,0.0 ,1.5 ,13.2,-,ND,1.20E-01,ND,1.20E-01,
2024/1/1 19:00,27.5,29.4,1.5 ,0.0 ,1.5 ,13.2,-,ND,1.20E-01,ND,1.20E-01,
2024/1/1 20:00,27.5,29.4,1.5 ,0.0 ,1.5 ,13.1,-,ND,1.20E-01,ND,1.20E-01,
2024/1/1 21:00,27.5,29.4,1.5 ,0.0 ,1.5 ,13.2,-,ND,1.20E-01,ND,1.20E-01,
2024/1/1 22:00,27.5,29.4,1.5 ,0.0 ,1.5 ,13.2,-,ND,1.20E-01,ND,1.20E-01,
2024/1/1 23:00,27.5,29.4,1.5 ,0.0 ,1.5 ,13.1,-,ND,1.20E-01,ND,1.20E-01,
2024/1/2 0:00,27.5,29.4,1.5 ,0.0 ,1.5 ,13.2,-,ND,1.20E-01,ND,1.20E-01,
2024/1/2 1:00,27.5,29.4,1.5 ,0.0 ,1.5 ,13.1,-,ND,1.20E-01,ND,1.20E-01,
2024/1/2 2:00,27.5,29.4,1.5 ,0.0 ,1.5 ,13.1,-,ND,1.20E-01,ND,1.20E-01,
2024/1/2 3:00,27.5,29.5,1.5 ,0.0 ,1.5 ,13.1,-,ND,1.20E-01,ND,1.20E-01,
2024/1/2 4:00,27.5,29.5,1.5 ,0.0 ,1.5 ,13.1,-,ND,1.20E-01,ND,1.20E-01,
2024/1/2 5:00,27.5,29.4,1.5 ,0.0 ,1.5 ,13.1,-,ND,1.20E-01,ND,1.20E-01,
2024/1/2 6:00,27.5,29.4,1.5 ,0.0 ,1.5 ,13.1,-,ND,1.20E-01,ND,1.20E-01,
2024/1/2 7:00,27.5,29.4,1.5 ,0.0 ,1.5 ,13,-,ND,1.20E-01,ND,1.20E-01,
2024/1/2 8:00,27.5,29.4,1.5 ,0.0 ,1.5 ,13,-,ND,1.20E-01,ND,1.20E-01,
2024/1/2 9:00,27.5,29.4,1.5 ,0.0 ,1.5 ,13.1,-,ND,1.20E-01,ND,1.20E-01,
2024/1/2 10:00,27.5,29.4,1.5 ,0.0 ,1.5 ,13.1,-,ND,1.20E-01,ND,1.20E-01,
2024/1/2 11:00,27.5,29.4,1.5 ,0.0 ,1.5 ,13,-,ND,1.20E-01,ND,1.20E-01,
2024/1/2 12:00,27.5,29.4,1.5 ,0.0 ,1.5 ,13.1,-,ND,1.20E-01,ND,1.20E-01,
2024/1/2 13:00,27.5,29.3,1.5 ,0.0 ,1.5 ,13.1,-,ND,1.20E-01,ND,1.20E-01,
2024/1/2 14:00,27.5,29.3,1.5 ,0.0 ,1.5 ,13.1,-,ND,1.20E-01,ND,1.20E-01,
2024/1/2 15:00,27.5,29.3,1.5 ,0.0 ,1.5 ,13.1,-,ND,1.20E-01,ND,1.20E-01,
2024/1/2 16:00,27.5,29.3,1.5 ,0.0 ,1.5 ,13.1,-,ND,1.20E-01,ND,1.20E-01,
2024/1/2 17:00,27.5,29.4,1.5 ,0.0 ,1.5 ,13.1,-,ND,1.20E-01,ND,1.20E-01,
2024/1/2 18:00,27.5,29.4,1.5 ,0.0 ,1.5 ,13.1,-,ND,1.20E-01,ND,1.20E-01,
2024/1/2 19:00,27.4,29.4,1.5 ,0.0 ,1.5 ,13.1,-,ND,1.20E-01,ND,1.20E-01,
2024/1/2 20:00,27.5,29.4,1.5 ,0.0 ,1.5 ,13.1,-,ND,1.20E-01,ND,1.20E-01,
2024/1/2 21:00,27.4,29.4,1.5 ,0.0 ,1.5 ,13.1,-,ND,1.20E-01,ND,1.20E-01,
2024/1/2 22:00,27.4,29.4,1.5 ,0.0 ,1.5 ,13.1,-,ND,1.20E-01,ND,1.20E-01,
2024/1/2 23:00,27.4,29.4,1.5 ,0.0 ,1.5 ,13.2,-,ND,1.20E-01,ND,1.20E-01,
2024/1/3 0:00,27.4,29.3,1.5 ,0.0 ,1.5 ,13.1,-,ND,1.20E-01,ND,1.20E-01,
2024/1/3 1:00,27.4,29.4,1.5 ,0.0 ,1.5 ,13.1,-,ND,1.20E-01,ND,1.20E-01,
2024/1/3 2:00,27.4,29.3,1.5 ,0.0 ,1.5 ,13.1,-,ND,1.20E-01,ND,1.20E-01,
2024/1/3 3:00,27.4,29.3,1.5 ,0.0 ,1.5 ,13.1,-,ND,1.20E-01,ND,1.20E-01,
2024/1/3 4:00,27.4,29.3,1.5 ,0.0 ,1.5 ,13.1,-,ND,1.20E-01,ND,1.20E-01,
2024/1/3 5:00,27.4,29.4,1.5 ,0.0 ,1.5 ,13,-,ND,1.20E-01,ND,1.20E-01,
2024/1/3 6:00,27.4,29.5,1.5 ,0.0 ,1.5 ,13,-,ND,1.20E-01,ND,1.20E-01,
2024/1/3 7:00,27.4,29.4,1.5 ,0.0 ,1.5 ,13.1,-,ND,1.20E-01,ND,1.20E-01,
2024/1/3 8:00,27.4,29.4,1.5 ,0.0 ,1.5 ,13.1,-,ND,1.20E-01,ND,1.20E-01,
2024/1/3 9:00,27.4,29.5,1.5 ,0.0 ,1.5 ,13.1,-,ND,1.20E-01,ND,1.20E-01,
2024/1/3 10:00,27.4,29.5,1.5 ,0.0 ,1.5 ,13.1,-,ND,1.20E-01,ND,1.20E-01,
2024/1/3 11:00,27.4,29.4,1.5 ,0.0 ,1.5 ,13.1,-,ND,1.20E-01,ND,1.20E-01,
2024/1/3 12:00,27.4,29.4,1.5 ,0.0 ,1.5 ,13.1,-,ND,1.20E-01,ND,1.20E-01,
2024/1/3 13:00,27.4,29.4,1.5 ,0.0 ,1.5 ,13.2,-,ND,1.20E-01,ND,1.20E-01,
2024/1/3 14:00,27.4,29.3,1.5 ,0.0 ,1.5 ,13.1,-,ND,1.20E-01,ND,1.20E-01,
2024/1/3 15:00,27.4,29.3,1.5 ,0.0 ,1.5 ,13.1,-,ND,1.20E-01,ND,1.20E-01,
2024/1/3 16:00,27.4,29.3,1.5 ,0.0 ,1.5 ,13.2,-,ND,1.20E-01,ND,1.20E-01,
2024/1/3 17:00,27.4,29.3,1.5 ,0.0 ,1.5 ,13.1,-,ND,1.20E-01,ND,1.20E-01,
2024/1/3 18:00,27.4,29.4,1.5 ,0.0 ,1.5 ,13.1,-,ND,1.20E-01,ND,1.20E-01,
2024/1/3 19:00,27.4,29.3,1.5 ,0.0 ,1.5 ,13.1,-,ND,1.20E-01,ND,1.20E-01,
2024/1/3 20:00,27.4,29.3,1.5 ,0.0 ,1.5 ,13.3,-,ND,1.20E-01,ND,1.20E-01,
2024/1/3 21:00,27.4,29.3,1.5 ,0.0 ,1.5 ,13.1,-,ND,1.20E-01,ND,1.20E-01,
2024/1/3 22:00,27.4,29.3,1.5 ,0.0 ,1.5 ,13.1,-,ND,1.20E-01,ND,1.20E-01,
2024/1/3 23:00,27.4,29.4,1.5 ,0.0 ,1.5 ,13.1,-,ND,1.20E-01,ND,1.20E-01,
2024/1/4 0:00,27.4,29.4,1.5 ,0.0 ,1.5 ,13.2,-,ND,1.20E-01,ND,1.20E-01,
2024/1/4 1:00,27.4,29.4,1.5 ,0.0 ,1.5 ,13.2,-,ND,1.20E-01,ND,1.20E-01,
2024/1/4 2:00,27.4,29.4,1.5 ,0.0 ,1.5 ,13.1,-,ND,1.20E-01,ND,1.20E-01,
2024/1/4 3:00,27.4,29.4,1.5 ,0.0 ,1.5 ,13.1,-,ND,1.20E-01,ND,1.20E-01,
2024/1/4 4:00,27.4,29.4,1.5 ,0.0 ,1.5 ,13.2,-,ND,1.20E-01,ND,1.20E-01,
2024/1/4 5:00,27.4,29.4,1.5 ,0.0 ,1.5 ,13.2,-,ND,1.20E-01,ND,1.20E-01,
2024/1/4 6:00,27.4,29.4,1.5 ,0.0 ,1.5 ,13.1,-,ND,1.20E-01,ND,1.20E-01,
2024/1/4 7:00,27.4,29.4,1.5 ,0.0 ,1.5 ,13.2,-,ND,1.20E-01,ND,1.20E-01,
2024/1/4 8:00,27.3,29.4,1.5 ,0.0 ,1.5 ,13.2,-,ND,1.20E-01,ND,1.20E-01,
2024/1/4 9:00,27.4,29.4,1.5 ,0.0 ,1.5 ,13.2,-,ND,1.20E-01,ND,1.20E-01,
2024/1/4 10:00,27.4,29.4,1.5 ,0.0 ,1.5 ,13.1,-,ND,1.20E-01,ND,1.20E-01,
2024/1/4 11:00,27.3,29.4,1.5 ,0.0 ,1.5 ,13.2,-,ND,1.20E-01,ND,1.20E-01,
2024/1/4 12:00,27.3,29.5,1.5 ,0.0 ,1.5 ,13.2,-,ND,1.20E-01,ND,1.20E-01,
2024/1/4 13:00,27.3,29.5,1.5 ,0.0 ,1.5 ,13.2,-,ND,1.20E-01,ND,1.20E-01,
2024/1/4 14:00,27.3,29.5,1.5 ,0.0 ,1.5 ,13.2,-,ND,1.20E-01,ND,1.20E-01,
2024/1/4 15:00,27.3,29.5,1.5 ,0.0 ,1.5 ,13.2,-,ND,1.20E-01,ND,1.20E-01,
2024/1/4 16:00,27.3,29.5,1.5 ,0.0 ,1.5 ,13.3,-,ND,1.20E-01,ND,1.20E-01,
2024/1/4 17:00,27.3,29.5,1.5 ,0.0 ,1.5 ,13.3,-,ND,1.20E-01,ND,1.20E-01,
2024/1/4 18:00,27.3,29.5,1.5 ,0.0 ,1.5 ,13.2,-,ND,1.20E-01,ND,1.20E-01,
2024/1/4 19:00,27.3,29.5,1.5 ,0.0 ,1.5 ,13.2,-,ND,1.20E-01,ND,1.20E-01,
2024/1/4 20:00,27.3,29.5,1.5 ,0.0 ,1.5 ,13.2,-,ND,1.20E-01,ND,1.20E-01,
2024/1/4 21:00,27.3,29.5,1.5 ,0.0 ,1.5 ,13.2,-,ND,1.20E-01,ND,1.20E-01,
2024/1/4 22:00,27.3,29.5,1.5 ,0.0 ,1.5 ,13.3,-,ND,1.20E-01,ND,1.20E-01,
2024/1/4 23:00,27.3,29.5,1.5 ,0.0 ,1.5 ,13.2,-,ND,1.20E-01,ND,1.20E-01,
2024/1/5 0:00,27.3,29.5,1.5 ,0.0 ,1.5 ,13.3,-,ND,1.20E-01,ND,1.20E-01,
2024/1/5 1:00,27.3,29.4,1.5 ,0.0 ,1.5 ,13.1,-,ND,1.20E-01,ND,1.20E-01,
2024/1/5 2:00,27.3,29.5,1.5 ,0.0 ,1.5 ,13.1,-,ND,1.20E-01,ND,1.20E-01,
2024/1/5 3:00,27.3,29.5,1.5 ,0.0 ,1.5 ,13.1,-,ND,1.20E-01,ND,1.20E-01,
2024/1/5 4:00,27.3,29.4,1.5 ,0.0 ,1.5 ,13.1,-,ND,1.20E-01,ND,1.20E-01,
2024/1/5 5:00,27.3,29.4,1.5 ,0.0 ,1.5 ,13,-,ND,1.20E-01,ND,1.20E-01,
2024/1/5 6:00,27.3,29.5,1.5 ,0.0 ,1.5 ,13.1,-,ND,1.20E-01,ND,1.20E-01,
2024/1/5 7:00,27.3,29.5,1.5 ,0.0 ,1.5 ,13.1,-,ND,1.20E-01,ND,1.20E-01,
2024/1/5 8:00,27.3,29.5,1.5 ,0.0 ,1.5 ,13.1,-,ND,1.20E-01,ND,1.20E-01,
2024/1/5 9:00,27.3,29.5,1.5 ,0.0 ,1.5 ,13,-,ND,1.20E-01,ND,1.20E-01,
2024/1/5 10:00,27.3,29.5,1.5 ,0.0 ,1.5 ,13,-,ND,1.20E-01,ND,1.20E-01,
2024/1/5 11:00,27.3,29.4,1.4 ,0.0 ,1.4 ,13,-,ND,1.20E-01,ND,1.20E-01,
2024/1/5 12:00,27.3,29.4,1.5 ,0.0 ,1.5 ,13,-,ND,1.20E-01,ND,1.20E-01,
2024/1/5 13:00,27.3,29.5,1.5 ,0.0 ,1.5 ,13.1,-,ND,1.20E-01,ND,1.20E-01,
2024/1/5 14:00,27.3,29.5,1.5 ,0.0 ,1.5 ,13.1,-,ND,1.20E-01,ND,1.20E-01,
2024/1/5 15:00,27.3,29.5,1.5 ,0.0 ,1.5 ,13.2,-,ND,1.20E-01,ND,1.20E-01,
2024/1/5 16:00,27.3,29.5,1.5 ,0.0 ,1.5 ,13.3,-,ND,1.20E-01,ND,1.20E-01,
2024/1/5 17:00,27.3,29.5,1.5 ,0.0 ,1.5 ,13.3,-,ND,1.20E-01,ND,1.20E-01,
2024/1/5 18:00,27.3,29.5,1.5 ,0.0 ,1.5 ,13.3,-,ND,1.20E-01,ND,1.20E-01,
2024/1/5 19:00,27.2,29.4,1.5 ,0.0 ,1.5 ,13.4,-,ND,1.20E-01,ND,1.20E-01,
2024/1/5 20:00,27.3,29.5,1.5 ,0.0 ,1.5 ,13.5,-,ND,1.20E-01,ND,1.20E-01,
2024/1/5 21:00,27.3,29.4,1.5 ,0.0 ,1.5 ,13.6,-,ND,1.20E-01,ND,1.20E-01,
2024/1/5 22:00,27.2,29.5,1.5 ,0.0 ,1.5 ,13.6,-,ND,1.20E-01,ND,1.20E-01,
2024/1/5 23:00,27.2,29.5,1.5 ,0.0 ,1.5 ,13.6,-,ND,1.20E-01,ND,1.20E-01,
2024/1/6 0:00,27.2,29.5,1.5 ,0.0 ,1.5 ,13.7,-,ND,1.20E-01,ND,1.20E-01,
2024/1/6 1:00,27.2,29.5,1.5 ,0.0 ,1.5 ,13.7,-,ND,1.20E-01,ND,1.20E-01,
2024/1/6 2:00,27.2,29.4,1.5 ,0.0 ,1.5 ,13.8,-,ND,1.20E-01,ND,1.20E-01,
2024/1/6 3:00,27.2,29.4,1.5 ,0.0 ,1.5 ,13.8,-,ND,1.20E-01,ND,1.20E-01,
2024/1/6 4:00,27.2,29.5,1.5 ,0.0 ,1.5 ,13.9,-,ND,1.20E-01,ND,1.20E-01,
2024/1/6 5:00,27.2,29.5,1.5 ,0.0 ,1.5 ,13.9,-,ND,1.20E-01,ND,1.20E-01,
2024/1/6 6:00,27.2,29.5,1.5 ,0.0 ,1.5 ,14,-,ND,1.20E-01,ND,1.20E-01,
2024/1/6 7:00,27.2,29.5,1.5 ,0.0 ,1.5 ,14,-,ND,1.20E-01,ND,1.20E-01,
2024/1/6 8:00,27.2,29.4,1.5 ,0.0 ,1.5 ,14.1,-,ND,1.20E-01,ND,1.20E-01,
2024/1/6 9:00,27.2,29.5,1.5 ,0.0 ,1.5 ,14.1,-,ND,1.20E-01,ND,1.20E-01,
2024/1/6 10:00,27.2,29.5,1.5 ,0.0 ,1.5 ,14.1,-,ND,1.20E-01,ND,1.20E-01,
2024/1/6 11:00,27.2,29.5,1.5 ,0.0 ,1.5 ,14.2,-,ND,1.20E-01,ND,1.20E-01,
2024/1/6 12:00,27.2,29.5,1.5 ,0.0 ,1.5 ,14.3,-,ND,1.20E-01,ND,1.20E-01,
2024/1/6 13:00,27.2,29.5,1.5 ,0.0 ,1.5 ,14.3,-,ND,1.20E-01,ND,1.20E-01,
2024/1/6 14:00,27.2,29.5,1.5 ,0.0 ,1.5 ,14.5,-,ND,1.20E-01,ND,1.20E-01,
2024/1/6 15:00,27.2,29.5,1.5 ,0.0 ,1.5 ,14.5,-,ND,1.20E-01,ND,1.20E-01,
2024/1/6 16:00,27.2,29.5,1.5 ,0.0 ,1.5 ,14.5,-,ND,1.20E-01,ND,1.20E-01,
2024/1/6 17:00,27.2,29.5,1.5 ,0.0 ,1.5 ,14.6,-,ND,1.20E-01,ND,1.20E-01,
2024/1/6 18:00,27.2,29.5,1.5 ,0.0 ,1.5 ,14.6,-,ND,1.20E-01,ND,1.20E-01,
2024/1/6 19:00,27.2,29.5,1.5 ,0.0 ,1.5 ,14.6,-,ND,1.20E-01,ND,1.20E-01,
2024/1/6 20:00,27.2,29.5,1.5 ,0.0 ,1.5 ,14.6,-,ND,1.20E-01,ND,1.20E-01,
2024/1/6 21:00,27.2,29.5,1.5 ,0.0 ,1.5 ,14.8,-,ND,1.20E-01,ND,1.20E-01,
2024/1/6 22:00,27.2,29.6,1.5 ,0.0 ,1.5 ,14.8,-,ND,1.20E-01,ND,1.20E-01,
2024/1/6 23:00,27.2,29.6,1.5 ,0.0 ,1.5 ,14.7,-,ND,1.20E-01,ND,1.20E-01,
2024/1/7 0:00,27.2,29.6,1.5 ,0.0 ,1.5 ,14.8,-,ND,1.20E-01,ND,1.20E-01,
2024/1/7 1:00,27.2,29.6,1.5 ,0.0 ,1.5 ,14.8,-,ND,1.20E-01,ND,1.20E-01,
2024/1/7 2:00,27.2,29.6,1.5 ,0.0 ,1.5 ,14.9,-,ND,1.20E-01,ND,1.20E-01,
2024/1/7 3:00,27.2,29.6,1.5 ,0.0 ,1.5 ,15,-,ND,1.20E-01,ND,1.20E-01,
2024/1/7 4:00,27.2,29.6,1.5 ,0.0 ,1.5 ,14.9,-,ND,1.20E-01,ND,1.20E-01,
2024/1/7 5:00,27.2,29.6,1.5 ,0.0 ,1.5 ,15,-,ND,1.20E-01,ND,1.20E-01,
2024/1/7 6:00,27.2,29.6,1.5 ,0.0 ,1.5 ,15,-,ND,1.20E-01,ND,1.20E-01,
2024/1/7 7:00,27.2,29.7,1.5 ,0.0 ,1.5 ,15,-,ND,1.20E-01,ND,1.20E-01,
2024/1/7 8:00,27.2,29.7,1.5 ,0.0 ,1.5 ,15,-,ND,1.20E-01,ND,1.20E-01,
2024/1/7 9:00,27.2,29.7,1.5 ,0.0 ,1.5 ,15.1,-,ND,1.20E-01,ND,1.20E-01,
2024/1/7 10:00,27.2,29.7,1.5 ,0.0 ,1.5 ,15.1,-,ND,1.20E-01,ND,1.20E-01,
2024/1/7 11:00,27.2,29.7,1.5 ,0.0 ,1.5 ,15.1,-,ND,1.20E-01,ND,1.20E-01,
2024/1/7 12:00,27.2,29.7,1.5 ,0.0 ,1.5 ,15.1,-,ND,1.20E-01,ND,1.20E-01,
2024/1/7 13:00,27.2,29.8,1.5 ,0.0 ,1.5 ,15,-,ND,1.20E-01,ND,1.20E-01,
2024/1/7 14:00,27.2,29.7,1.5 ,0.0 ,1.5 ,15.1,-,ND,1.20E-01,ND,1.20E-01,
2024/1/7 15:00,27.2,29.8,1.5 ,0.0 ,1.5 ,15.1,-,ND,1.20E-01,ND,1.20E-01,
2024/1/7 16:00,27.2,29.8,1.5 ,0.0 ,1.5 ,15.1,-,ND,1.20E-01,ND,1.20E-01,
2024/1/7 17:00,27.2,29.8,1.5 ,0.0 ,1.5 ,15,-,ND,1.20E-01,ND,1.20E-01,
2024/1/7 18:00,27.2,29.8,1.5 ,0.0 ,1.5 ,15,-,ND,1.20E-01,ND,1.20E-01,
2024/1/7 19:00,27.2,29.8,1.5 ,0.0 ,1.5 ,15,-,ND,1.20E-01,ND,1.20E-01,
2024/1/7 20:00,27.2,29.8,1.5 ,0.0 ,1.5 ,15,-,ND,1.20E-01,ND,1.20E-01,
2024/1/7 21:00,27.2,29.8,1.5 ,0.0 ,1.5 ,15,-,ND,1.20E-01,ND,1.20E-01,
2024/1/7 22:00,27.2,29.8,1.5 ,0.0 ,1.5 ,15,-,ND,1.20E-01,ND,1.20E-01,
2024/1/7 23:00,27.2,29.8,1.5 ,0.0 ,1.5 ,15,-,ND,1.20E-01,ND,1.20E-01,
2024/1/8 0:00,27.2,29.9,1.5 ,0.0 ,1.5 ,15,-,ND,1.20E-01,ND,1.20E-01,
2024/1/8 1:00,27.2,29.9,1.5 ,0.0 ,1.5 ,14.9,-,ND,1.20E-01,ND,1.20E-01,
2024/1/8 2:00,27.2,29.9,1.5 ,0.0 ,1.5 ,14.9,-,ND,1.20E-01,ND,1.20E-01,
2024/1/8 3:00,27.2,29.9,1.5 ,0.0 ,1.5 ,14.8,-,ND,1.20E-01,ND,1.20E-01,
2024/1/8 4:00,27.2,29.9,1.5 ,0.0 ,1.5 ,14.8,-,ND,1.20E-01,ND,1.20E-01,
2024/1/8 5:00,27.2,29.9,1.5 ,0.0 ,1.5 ,14.8,-,ND,1.20E-01,ND,1.20E-01,
2024/1/8 6:00,27.2,29.9,1.5 ,0.0 ,1.5 ,14.8,-,ND,1.20E-01,ND,1.20E-01,
2024/1/8 7:00,27.2,29.9,1.5 ,0.0 ,1.5 ,14.7,-,ND,1.20E-01,ND,1.20E-01,
2024/1/8 8:00,27.2,30,1.5 ,0.0 ,1.5 ,14.7,-,ND,1.20E-01,ND,1.20E-01,
2024/1/8 9:00,27.2,30,1.5 ,0.0 ,1.5 ,14.7,-,ND,1.20E-01,ND,1.20E-01,
2024/1/8 10:00,27.2,30,1.5 ,0.0 ,1.5 ,14.6,-,ND,1.20E-01,ND,1.20E-01,
2024/1/8 11:00,27.2,30,1.5 ,0.0 ,1.5 ,14.6,-,ND,1.20E-01,ND,1.20E-01,
2024/1/8 12:00,27.2,30,1.5 ,0.0 ,1.5 ,14.7,-,ND,1.20E-01,ND,1.20E-01,
2024/1/8 13:00,27.2,29.9,1.5 ,0.0 ,1.5 ,14.7,-,ND,1.20E-01,ND,1.20E-01,
2024/1/8 14:00,27.2,30,1.5 ,0.0 ,1.5 ,14.7,-,ND,1.20E-01,ND,1.20E-01,
2024/1/8 15:00,27.2,30,1.5 ,0.0 ,1.5 ,14.6,-,ND,1.20E-01,ND,1.20E-01,
2024/1/8 16:00,27.2,30,1.5 ,0.0 ,1.5 ,14.6,-,ND,1.20E-01,ND,1.20E-01,
2024/1/8 17:00,27.2,30,1.5 ,0.0 ,1.5 ,14.6,-,ND,1.20E-01,ND,1.20E-01,
2024/1/8 18:00,27.2,30,1.4 ,0.0 ,1.4 ,14.7,-,ND,1.20E-01,ND,1.20E-01,
2024/1/8 19:00,27.2,30,1.5 ,0.0 ,1.5 ,14.6,-,ND,1.20E-01,ND,1.20E-01,
2024/1/8 20:00,27.2,30.1,1.5 ,0.0 ,1.5 ,14.6,-,ND,1.20E-01,ND,1.20E-01,
2024/1/8 21:00,27.2,30.1,1.5 ,0.0 ,1.5 ,14.6,-,ND,1.20E-01,ND,1.20E-01,
2024/1/8 22:00,27.2,30.1,1.5 ,0.0 ,1.5 ,14.6,-,ND,1.20E-01,ND,1.20E-01,
2024/1/8 23:00,27.2,30.1,1.5 ,0.0 ,1.5 ,14.6,-,ND,1.20E-01,ND,1.20E-01,
2024/1/9 0:00,27.2,30.1,1.5 ,0.0 ,1.5 ,14.6,-,ND,1.20E-01,ND,1.20E-01,
2024/1/9 1:00,27.2,30.1,1.5 ,0.0 ,1.5 ,14.6,-,ND,1.20E-01,ND,1.20E-01,
2024/1/9 2:00,27.2,30.1,1.5 ,0.0 ,1.5 ,14.7,-,ND,1.20E-01,ND,1.20E-01,
2024/1/9 3:00,27.2,30.1,1.5 ,0.0 ,1.5 ,14.7,-,ND,1.20E-01,ND,1.20E-01,
2024/1/9 4:00,27.2,30,1.5 ,0.0 ,1.5 ,14.6,-,ND,1.20E-01,ND,1.20E-01,
2024/1/9 5:00,27.2,30,1.5 ,0.0 ,1.5 ,14.6,-,ND,1.20E-01,ND,1.20E-01,
2024/1/9 6:00,27.2,30,1.5 ,0.0 ,1.5 ,14.7,-,ND,1.20E-01,ND,1.20E-01,
2024/1/9 7:00,27.2,30,1.5 ,0.0 ,1.5 ,14.7,-,ND,1.20E-01,ND,1.20E-01,
2024/1/9 8:00,27.2,30.1,1.5 ,0.0 ,1.5 ,14.8,-,ND,1.20E-01,ND,1.20E-01,
2024/1/9 9:00,27.2,30.1,1.5 ,0.0 ,1.5 ,14.8,-,ND,1.20E-01,ND,1.20E-01,
2024/1/9 10:00,27.2,30,1.4 ,0.0 ,1.4 ,15,-,ND,1.20E-01,ND,1.20E-01,
2024/1/9 11:00,27.2,30.1,1.3 ,0.0 ,1.3 ,14.8,-,ND,1.20E-01,ND,1.20E-01,
2024/1/9 12:00,27.2,30.2,1.3 ,0.0 ,1.3 ,14.9,-,ND,1.20E-01,ND,1.20E-01,
2024/1/9 13:00,27.2,30.2,1.3 ,0.0 ,1.3 ,15,-,ND,1.20E-01,ND,1.20E-01,
2024/1/9 14:00,27.2,30.2,1.3 ,0.0 ,1.3 ,15,-,ND,1.20E-01,ND,1.20E-01,
2024/1/9 15:00,27.2,30.3,1.3 ,0.0 ,1.3 ,15,-,ND,1.20E-01,ND,1.20E-01,
2024/1/9 16:00,27.2,30.2,1.3 ,0.0 ,1.3 ,15,-,ND,1.20E-01,ND,1.20E-01,
2024/1/9 17:00,27.2,30.2,1.3 ,0.0 ,1.3 ,15,-,ND,1.20E-01,ND,1.20E-01,
2024/1/9 18:00,27.2,30.3,1.3 ,0.0 ,1.3 ,15,-,ND,1.20E-01,ND,1.20E-01,
2024/1/9 19:00,27.1,30.3,1.3 ,0.0 ,1.3 ,15,-,ND,1.20E-01,ND,1.20E-01,
2024/1/9 20:00,27.1,30.3,1.3 ,0.0 ,1.3 ,15.1,-,ND,1.20E-01,ND,1.20E-01,
2024/1/9 21:00,27.2,30.4,1.3 ,0.0 ,1.3 ,15,-,ND,1.20E-01,ND,1.20E-01,
2024/1/9 22:00,27.1,30.4,1.3 ,0.0 ,1.3 ,15.1,-,ND,1.20E-01,ND,1.20E-01,
2024/1/9 23:00,27.2,30.4,1.3 ,0.0 ,1.3 ,15.1,-,ND,1.20E-01,ND,1.20E-01,
2024/1/10 0:00,27.1,30.4,1.3 ,0.0 ,1.3 ,15.1,-,ND,1.20E-01,ND,1.20E-01,
2024/1/10 1:00,27.2,30.5,1.3 ,0.0 ,1.3 ,15.1,-,ND,1.20E-01,ND,1.20E-01,
2024/1/10 2:00,27.2,30.5,1.3 ,0.0 ,1.3 ,15.2,-,ND,1.20E-01,ND,1.20E-01,
2024/1/10 3:00,27.2,30.5,1.3 ,0.0 ,1.3 ,15.2,-,ND,1.20E-01,ND,1.20E-01,
2024/1/10 4:00,27.2,30.5,1.3 ,0.0 ,1.3 ,15.2,-,ND,1.20E-01,ND,1.20E-01,
2024/1/10 5:00,27.1,30.6,1.3 ,0.0 ,1.3 ,15.3,-,ND,1.20E-01,ND,1.20E-01,
2024/1/10 6:00,27.1,30.6,1.3 ,0.0 ,1.3 ,15.3,-,ND,1.20E-01,ND,1.20E-01,
2024/1/10 7:00,27.1,30.6,1.3 ,0.0 ,1.3 ,15.3,-,ND,1.20E-01,ND,1.20E-01,
2024/1/10 8:00,27.1,30.6,1.3 ,0.0 ,1.3 ,15.3,-,ND,1.20E-01,ND,1.20E-01,
2024/1/10 9:00,27.1,30.6,1.3 ,0.0 ,1.3 ,15.4,-,ND,1.20E-01,ND,1.20E-01,
2024/1/10 10:00,27.1,30.6,1.3 ,0.0 ,1.3 ,15.3,-,ND,1.20E-01,ND,1.20E-01,
2024/1/10 11:00,27.1,30.6,1.3 ,0.0 ,1.3 ,15.5,-,ND,1.20E-01,ND,1.20E-01,
2024/1/10 12:00,27.1,30.6,1.3 ,0.0 ,1.3 ,15.5,-,ND,1.20E-01,ND,1.20E-01,
2024/1/10 13:00,27.1,30.6,1.3 ,0.0 ,1.3 ,15.5,-,ND,1.20E-01,ND,1.20E-01,
2024/1/10 14:00,27.1,30.6,1.3 ,0.0 ,1.3 ,15.5,-,ND,1.20E-01,ND,1.20E-01,
2024/1/10 15:00,27.1,30.6,1.3 ,0.0 ,1.3 ,15.5,-,ND,1.20E-01,ND,1.20E-01,
2024/1/10 16:00,27.1,30.7,1.3 ,0.0 ,1.3 ,15.5,-,ND,1.20E-01,ND,1.20E-01,
2024/1/10 17:00,27.1,30.7,1.3 ,0.0 ,1.3 ,15.6,-,ND,1.20E-01,ND,1.20E-01,
2024/1/10 18:00,27.1,30.7,1.3 ,0.0 ,1.3 ,15.5,-,ND,1.20E-01,ND,1.20E-01,
2024/1/10 19:00,27.1,30.7,1.3 ,0.0 ,1.3 ,15.5,-,ND,1.20E-01,ND,1.20E-01,
2024/1/10 20:00,27.1,30.7,1.3 ,0.0 ,1.3 ,15.5,-,ND,1.20E-01,ND,1.20E-01,
2024/1/10 21:00,27.1,30.7,1.3 ,0.0 ,1.3 ,15.6,-,ND,1.20E-01,ND,1.20E-01,
2024/1/10 22:00,27.1,30.8,1.3 ,0.0 ,1.3 ,15.6,-,ND,1.20E-01,ND,1.20E-01,
2024/1/10 23:00,27.1,30.8,1.3 ,0.0 ,1.3 ,15.6,-,ND,1.20E-01,ND,1.20E-01,
2024/1/11 0:00,27.1,30.8,1.3 ,0.0 ,1.3 ,15.5,-,ND,1.20E-01,ND,1.20E-01,
2024/1/11 1:00,27.1,30.8,1.3 ,0.0 ,1.3 ,15.5,-,ND,1.20E-01,ND,1.20E-01,
2024/1/11 2:00,27.1,30.8,1.3 ,0.0 ,1.3 ,15.5,-,ND,1.20E-01,ND,1.20E-01,
2024/1/11 3:00,27.1,30.8,1.3 ,0.0 ,1.3 ,15.5,-,ND,1.20E-01,ND,1.20E-01,
2024/1/11 4:00,27.1,30.8,1.3 ,0.0 ,1.3 ,15.5,-,ND,1.20E-01,ND,1.20E-01,
2024/1/11 5:00,27.1,30.9,1.3 ,0.0 ,1.3 ,15.5,-,ND,1.20E-01,ND,1.20E-01,
2024/1/11 6:00,27.1,30.9,1.3 ,0.0 ,1.3 ,15.4,-,ND,1.20E-01,ND,1.20E-01,
2024/1/11 7:00,27.1,30.9,1.3 ,0.0 ,1.3 ,15.4,-,ND,1.20E-01,ND,1.20E-01,
2024/1/11 8:00,27.1,30.9,1.3 ,0.0 ,1.3 ,15.4,-,ND,1.20E-01,ND,1.20E-01,
2024/1/11 9:00,27.1,30.9,1.3 ,0.0 ,1.3 ,15.3,-,ND,1.20E-01,ND,1.20E-01,
2024/1/11 10:00,27.1,30.9,1.3 ,0.0 ,1.3 ,15.3,-,ND,1.20E-01,ND,1.20E-01,
2024/1/11 11:00,27.1,31,1.3 ,0.0 ,1.3 ,15.3,-,ND,1.20E-01,ND,1.20E-01,
2024/1/11 12:00,27.2,31,1.3 ,0.0 ,1.3 ,15.3,-,ND,1.20E-01,ND,1.20E-01,
2024/1/11 13:00,27.2,30.9,1.3 ,0.0 ,1.3 ,15.3,-,ND,1.20E-01,ND,1.20E-01,
2024/1/11 14:00,27.1,30.9,1.3 ,0.0 ,1.3 ,15.3,-,ND,1.20E-01,ND,1.20E-01,
2024/1/11 15:00,27.2,30.9,1.3 ,0.0 ,1.3 ,15.3,-,ND,1.20E-01,ND,1.20E-01,
2024/1/11 16:00,27.1,30.9,1.3 ,0.0 ,1.3 ,15.3,-,ND,1.20E-01,ND,1.20E-01,
2024/1/11 17:00,27.2,31,1.3 ,0.0 ,1.3 ,15.3,-,ND,1.20E-01,ND,1.20E-01,
2024/1/11 18:00,27.2,31.1,1.3 ,0.0 ,1.3 ,15.3,-,ND,1.20E-01,ND,1.20E-01,
2024/1/11 19:00,27.2,31.1,1.3 ,0.0 ,1.3 ,15.2,-,ND,1.20E-01,ND,1.20E-01,
2024/1/11 20:00,27.2,31.1,1.3 ,0.0 ,1.3 ,15.3,-,ND,1.20E-01,ND,1.20E-01,
2024/1/11 21:00,27.2,31.1,1.3 ,0.0 ,1.3 ,15.2,-,ND,1.20E-01,ND,1.20E-01,
2024/1/11 22:00,27.2,31.1,1.3 ,0.0 ,1.3 ,15.1,-,ND,1.20E-01,ND,1.20E-01,
2024/1/11 23:00,27.2,31.1,1.3 ,0.0 ,1.3 ,15.1,-,ND,1.20E-01,ND,1.20E-01,
2024/1/12 0:00,27.2,31.2,1.3 ,0.0 ,1.3 ,15.1,-,ND,1.20E-01,ND,1.20E-01,
2024/1/12 1:00,27.2,31.2,1.3 ,0.0 ,1.3 ,15.1,-,ND,1.20E-01,ND,1.20E-01,
2024/1/12 2:00,27.2,31.2,1.3 ,0.0 ,1.3 ,15.1,-,ND,1.20E-01,ND,1.20E-01,
2024/1/12 3:00,27.2,31.2,1.3 ,0.0 ,1.3 ,15.1,-,ND,1.20E-01,ND,1.20E-01,
2024/1/12 4:00,27.2,31.2,1.3 ,0.0 ,1.3 ,15.1,-,ND,1.20E-01,ND,1.20E-01,
2024/1/12 5:00,27.2,31.2,1.3 ,0.0 ,1.3 ,15,-,ND,1.20E-01,ND,1.20E-01,
2024/1/12 6:00,27.2,31.2,1.3 ,0.0 ,1.3 ,15.1,-,ND,1.20E-01,ND,1.20E-01,
2024/1/12 7:00,27.2,31.2,1.3 ,0.0 ,1.3 ,15,-,ND,1.20E-01,ND,1.20E-01,
2024/1/12 8:00,27.2,31.2,1.3 ,0.0 ,1.3 ,15,-,ND,1.20E-01,ND,1.20E-01,
2024/1/12 9:00,27.2,31.2,1.3 ,0.0 ,1.3 ,15,-,ND,1.20E-01,ND,1.20E-01,
2024/1/12 10:00,27.2,31.3,1.3 ,0.0 ,1.3 ,15,-,ND,1.20E-01,ND,1.20E-01,
2024/1/12 11:00,27.2,31.3,1.3 ,0.0 ,1.3 ,15,-,ND,1.20E-01,ND,1.20E-01,
2024/1/12 12:00,27.2,31.3,1.3 ,0.0 ,1.3 ,15,-,ND,1.20E-01,ND,1.20E-01,
2024/1/12 13:00,27.2,31.2,1.3 ,0.0 ,1.3 ,15.1,-,ND,1.20E-01,ND,1.20E-01,
2024/1/12 14:00,27.2,31.2,1.3 ,0.0 ,1.3 ,15.1,-,ND,1.20E-01,ND,1.20E-01,
2024/1/12 15:00,27.2,31.3,1.3 ,0.0 ,1.3 ,15.1,-,ND,1.20E-01,ND,1.20E-01,
2024/1/12 16:00,27.2,31.2,1.3 ,0.0 ,1.3 ,15.1,-,ND,1.20E-01,ND,1.20E-01,
2024/1/12 17:00,27.2,31.2,1.3 ,0.0 ,1.3 ,15.1,-,ND,1.20E-01,ND,1.20E-01,
2024/1/12 18:00,27.2,31.2,1.3 ,0.0 ,1.3 ,15.1,-,ND,1.20E-01,ND,1.20E-01,
2024/1/12 19:00,27.2,31.3,1.3 ,0.0 ,1.3 ,15.2,-,ND,1.20E-01,ND,1.20E-01,
2024/1/12 20:00,27.2,31.2,1.3 ,0.0 ,1.3 ,15.3,-,ND,1.20E-01,ND,1.20E-01,
2024/1/12 21:00,27.2,31.3,1.3 ,0.0 ,1.3 ,15.3,-,ND,1.20E-01,ND,1.20E-01,
2024/1/12 22:00,27.2,31.3,1.3 ,0.0 ,1.3 ,15.3,-,ND,1.20E-01,ND,1.20E-01,
2024/1/12 23:00,27.2,31.3,1.3 ,0.0 ,1.3 ,15.3,-,ND,1.20E-01,ND,1.20E-01,
2024/1/13 0:00,27.2,31.3,1.3 ,0.0 ,1.3 ,15.3,-,ND,1.20E-01,ND,1.20E-01,
2024/1/13 1:00,27.2,31.3,1.3 ,0.0 ,1.3 ,15.3,-,ND,1.20E-01,ND,1.20E-01,
2024/1/13 2:00,27.2,31.3,1.3 ,0.0 ,1.3 ,15.3,-,ND,1.20E-01,ND,1.20E-01,
2024/1/13 3:00,27.2,31.3,1.3 ,0.0 ,1.3 ,15.4,-,ND,1.20E-01,ND,1.20E-01,
2024/1/13 4:00,27.2,31.3,1.3 ,0.0 ,1.3 ,15.3,-,ND,1.20E-01,ND,1.20E-01,
2024/1/13 5:00,27.2,31.3,1.3 ,0.0 ,1.3 ,15.3,-,ND,1.20E-01,ND,1.20E-01,
2024/1/13 6:00,27.2,31.3,1.3 ,0.0 ,1.3 ,15.4,-,ND,1.20E-01,ND,1.20E-01,
2024/1/13 7:00,27.2,31.3,1.3 ,0.0 ,1.3 ,15.4,-,ND,1.20E-01,ND,1.20E-01,
2024/1/13 8:00,27.2,31.4,1.3 ,0.0 ,1.3 ,15.4,-,ND,1.20E-01,ND,1.20E-01,
2024/1/13 9:00,27.2,31.4,1.3 ,0.0 ,1.3 ,15.4,-,ND,1.20E-01,ND,1.20E-01,
2024/1/13 10:00,27.2,31.4,1.3 ,0.0 ,1.3 ,15.4,-,ND,1.20E-01,ND,1.20E-01,
2024/1/13 11:00,27.2,31.4,1.3 ,0.0 ,1.3 ,15.4,-,ND,1.20E-01,ND,1.20E-01,
2024/1/13 12:00,27.2,31.4,1.3 ,0.0 ,1.3 ,15.5,-,ND,1.20E-01,ND,1.20E-01,
2024/1/13 13:00,27.2,31.3,1.3 ,0.0 ,1.3 ,15.4,-,ND,1.20E-01,ND,1.20E-01,
2024/1/13 14:00,27.2,31.3,1.3 ,0.0 ,1.3 ,15.5,-,ND,1.20E-01,ND,1.20E-01,
2024/1/13 15:00,27.2,31.4,1.3 ,0.0 ,1.3 ,15.5,-,ND,1.20E-01,ND,1.20E-01,
2024/1/13 16:00,27.2,31.4,1.3 ,0.0 ,1.3 ,15.5,-,ND,1.20E-01,ND,1.20E-01,
2024/1/13 17:00,27.2,31.4,1.3 ,0.0 ,1.3 ,15.5,-,ND,1.20E-01,ND,1.20E-01,
2024/1/13 18:00,27.2,31.4,1.3 ,0.0 ,1.3 ,15.5,-,ND,1.20E-01,ND,1.20E-01,
2024/1/13 19:00,27.2,31.3,1.3 ,0.0 ,1.3 ,15.5,-,ND,1.20E-01,ND,1.20E-01,
2024/1/13 20:00,27.2,31.4,1.3 ,0.0 ,1.3 ,15.5,-,ND,1.20E-01,ND,1.20E-01,
2024/1/13 21:00,27.2,31.4,1.3 ,0.0 ,1.3 ,15.5,-,ND,1.20E-01,ND,1.20E-01,
2024/1/13 22:00,27.2,31.4,1.3 ,0.0 ,1.3 ,15.5,-,ND,1.20E-01,ND,1.20E-01,
2024/1/13 23:00,27.2,31.4,1.3 ,0.0 ,1.3 ,15.5,-,ND,1.20E-01,ND,1.20E-01,
2024/1/14 0:00,27.2,31.4,1.3 ,0.0 ,1.3 ,15.5,-,ND,1.20E-01,ND,1.20E-01,
2024/1/14 1:00,27.2,31.4,1.3 ,0.0 ,1.3 ,15.5,-,ND,1.20E-01,ND,1.20E-01,
2024/1/14 2:00,27.2,31.5,1.3 ,0.0 ,1.3 ,15.5,-,ND,1.20E-01,ND,1.20E-01,
2024/1/14 3:00,27.2,31.5,1.3 ,0.0 ,1.3 ,15.5,-,ND,1.20E-01,ND,1.20E-01,
2024/1/14 4:00,27.2,31.4,1.3 ,0.0 ,1.3 ,15.5,-,ND,1.20E-01,ND,1.20E-01,
2024/1/14 5:00,27.2,31.5,1.3 ,0.0 ,1.3 ,15.5,-,ND,1.20E-01,ND,1.20E-01,
2024/1/14 6:00,27.2,31.5,1.3 ,0.0 ,1.3 ,15.5,-,ND,1.20E-01,ND,1.20E-01,
2024/1/14 7:00,27.2,31.5,1.3 ,0.0 ,1.3 ,15.5,-,ND,1.20E-01,ND,1.20E-01,
2024/1/14 8:00,27.2,31.5,1.3 ,0.0 ,1.3 ,15.5,-,ND,1.20E-01,ND,1.20E-01,
2024/1/14 9:00,27.2,31.6,1.3 ,0.0 ,1.3 ,15.5,-,ND,1.20E-01,ND,1.20E-01,